Weather History for Springfield, IL

Change the Weather History Date:

Saturday, January 11, 2014

  Actual Average Record
Temperature  
Mean Temperature 37 °F 26 °F  
Max Temperature 43 °F 34 °F 67 °F (1890)
Min Temperature 31 °F 19 °F -18 °F (1918)
Degree Days  
Heating Degree Days 28 38  
Month to date heating degree days 525 418  
Since 1 July heating degree days 2871 2558  
Cooling Degree Days 0 0  
Month to date cooling degree days 0 0  
Year to date cooling degree days 0 0  
Moisture  
Dew Point 36 °F    
Average Humidity 87    
Maximum Humidity 100    
Minimum Humidity 73    
Precipitation  
Precipitation 0.04 in 0.06 in 1.74 in (1905)
Month to date precipitation 1.75 0.71  
Year to date precipitation 1.75 0.71  
Snow  
Snow T in 0.20 in 6.00 in (1908)
Month to date snowfall 13.5 2.3  
Since 1 July snowfall 22.4 8.5  
Snow Depth 0.00 in    
Sea Level Pressure  
Sea Level Pressure 29.64 in    
Wind  
Wind Speed 13 mph (West)    
Max Wind Speed 22 mph    
Max Gust Speed 25 mph    
Visibility 7 miles    
Events Fog , Snow    
T = Trace of Precipitation, MM = Missing Value Source: NWS Daily Summary

Daily Weather History Graph

Daily Weather History Graph

Search for Another Location

Airport:

Trip Planner

Search our weather history database for the weather conditions in past years. The results will help you decide how hot, cold, wet, or windy it might be!

Date:

Astronomy

Jan. 11, 2014 Rise Set
Actual Time 7:19 AM CST 4:54 PM CST
Civil Twilight 6:49 AM CST 5:24 PM CST
Nautical Twilight 6:16 AM CST 5:57 PM CST
Astronomical Twilight 5:43 AM CST 6:30 PM CST
Moon 1:38 PM CST (1/11) 3:24 AM CST (1/11)
Length of Visible Light 10h 34m
Length of Day
9h 34m
Waxing Gibbous, 83% of the Moon is Illuminated
Jan 11
Waxing Gibbous
Jan 15
Full
Jan 23
Last Quarter
Jan 30
New
Feb 6
First Quarter

Hourly Weather History & Observations

Time (CST) Temp. Windchill Dew Point Humidity Pressure Visibility Wind Dir Wind Speed Gust Speed Precip Events Conditions
12:52 AM 41.0 °F 34.3 °F 41.0 °F 100% 29.51 in 6.0 mi South 11.5 mph - 0.04 in   Overcast
1:11 AM 41.0 °F 35.2 °F 41.0 °F 100% 29.50 in 1.8 mi SSW 9.2 mph - N/A   Overcast
1:22 AM 41.0 °F 35.8 °F 41.0 °F 100% 29.49 in 1.0 mi SSW 8.1 mph - N/A   Overcast
1:37 AM 41.0 °F 36.4 °F 41.0 °F 100% 29.50 in 0.8 mi SSW 6.9 mph - N/A   Mist
1:44 AM 41.0 °F 37.1 °F 41.0 °F 100% 29.50 in 1.0 mi SW 5.8 mph - N/A   Mist
1:52 AM 41.0 °F 38.0 °F 41.0 °F 100% 29.51 in 1.0 mi WSW 4.6 mph - N/A   Mist
2:03 AM 39.2 °F 33.6 °F 39.2 °F 100% 29.51 in 0.5 mi WSW 8.1 mph - N/A Fog Fog
2:15 AM 39.2 °F 32.0 °F 39.2 °F 100% 29.50 in 1.5 mi West 11.5 mph - N/A   Overcast
2:22 AM 39.2 °F 32.5 °F 39.2 °F 100% 29.50 in 3.0 mi West 10.4 mph - N/A   Overcast
2:42 AM 39.2 °F 35.9 °F 39.2 °F 100% 29.49 in 1.8 mi WSW 4.6 mph - N/A   Overcast
2:48 AM 37.4 °F 32.1 °F 37.4 °F 100% 29.50 in 0.8 mi WSW 6.9 mph - N/A   Overcast
2:52 AM 37.9 °F 31.5 °F 37.9 °F 100% 29.52 in 0.5 mi WSW 9.2 mph - N/A Fog Fog
3:42 AM 37.4 °F 29.8 °F 37.4 °F 100% 29.53 in 1.5 mi West 11.5 mph - N/A   Overcast
3:46 AM 37.4 °F 30.8 °F 37.4 °F 100% 29.53 in 3.0 mi West 9.2 mph - N/A   Overcast
3:52 AM 37.9 °F 30.5 °F 37.9 °F 100% 29.55 in 5.0 mi West 11.5 mph - N/A   Overcast
4:52 AM 36.0 °F 26.3 °F 36.0 °F 100% 29.56 in 8.0 mi West 16.1 mph 21.9 mph N/A   Overcast
5:35 AM 35.6 °F 26.2 °F 35.6 °F 100% 29.56 in 10.0 mi West 15.0 mph - N/A   Overcast
5:49 AM 35.6 °F 26.6 °F 35.6 °F 100% 29.57 in 10.0 mi West 13.8 mph - N/A   Overcast
5:52 AM 35.1 °F 25.2 °F 35.1 °F 100% 29.58 in 10.0 mi West 16.1 mph - N/A   Overcast
6:18 AM 35.6 °F 26.2 °F 35.6 °F 100% 29.58 in 10.0 mi West 15.0 mph - N/A   Overcast
6:52 AM 35.1 °F 25.5 °F 35.1 °F 100% 29.60 in 10.0 mi West 15.0 mph - 0.00 in Snow Light Snow
7:32 AM 33.8 °F 24.8 °F 33.8 °F 100% 29.60 in 10.0 mi West 12.7 mph - 0.00 in   Overcast
7:47 AM 33.8 °F 24.3 °F 33.8 °F 100% 29.60 in 9.0 mi West 13.8 mph - 0.00 in   Overcast
7:52 AM 34.0 °F 24.2 °F 34.0 °F 100% 29.62 in 9.0 mi West 15.0 mph - 0.00 in   Overcast
8:52 AM 35.1 °F 26.9 °F 35.1 °F 100% 29.65 in 8.0 mi West 11.5 mph - N/A   Overcast
9:27 AM 35.6 °F 25.2 °F 35.6 °F 100% 29.65 in 9.0 mi West 18.4 mph - N/A   Overcast
9:52 AM 35.1 °F 25.2 °F 35.1 °F 100% 29.67 in 9.0 mi West 16.1 mph - N/A   Overcast
10:52 AM 36.0 °F 27.5 °F 36.0 °F 100% 29.68 in 9.0 mi West 12.7 mph 20.7 mph N/A   Overcast
11:27 AM 37.4 °F 26.9 °F 37.4 °F 100% 29.65 in 10.0 mi West 20.7 mph 25.3 mph N/A   Mostly Cloudy
11:42 AM 37.4 °F 27.5 °F 37.4 °F 100% 29.65 in 10.0 mi West 18.4 mph 25.3 mph N/A   Scattered Clouds
11:52 AM 39.0 °F 29.3 °F 39.0 °F 100% 29.66 in 10.0 mi West 19.6 mph 23.0 mph N/A   Clear
12:52 PM 41.0 °F 33.5 °F 41.0 °F 100% 29.65 in 10.0 mi West 13.8 mph - N/A   Clear
1:52 PM 42.1 °F 34.5 °F 42.1 °F 100% 29.66 in 10.0 mi West 15.0 mph - N/A   Clear
2:52 PM 42.1 °F 33.9 °F 42.1 °F 100% 29.68 in 10.0 mi West 17.3 mph - N/A   Clear
3:52 PM 42.1 °F 33.9 °F 33.8 °F 72% 29.70 in 10.0 mi West 17.3 mph 23.0 mph N/A   Clear
4:52 PM 41.0 °F 34.7 °F 33.8 °F 76% 29.74 in 10.0 mi West 10.4 mph - N/A   Clear
5:52 PM 37.9 °F 28.9 °F 30.2 °F 74% 29.77 in 10.0 mi West 16.1 mph - N/A   Clear
6:52 PM 37.9 °F 30.9 °F 30.2 °F 74% 29.80 in 10.0 mi West 10.4 mph - N/A   Clear
7:52 PM 35.6 °F 27.1 °F 30.2 °F 81% 29.83 in 10.0 mi West 12.7 mph - N/A   Clear
8:52 PM 33.1 °F 26.1 °F 33.1 °F 100% 29.87 in 10.0 mi NW 8.1 mph - N/A   Mostly Cloudy
9:04 PM 33.8 °F 26.4 °F 33.8 °F 100% 29.86 in 10.0 mi WNW 9.2 mph - N/A   Overcast
9:52 PM 33.1 °F 26.1 °F 33.1 °F 100% 29.89 in 10.0 mi WNW 8.1 mph - N/A   Overcast
10:52 PM 33.1 °F 23.9 °F 33.1 °F 100% 29.90 in 10.0 mi NW 12.7 mph 20.7 mph N/A   Overcast
11:32 PM 30.2 °F 20.2 °F 30.2 °F 100% 29.89 in 10.0 mi NW 12.7 mph - N/A   Overcast
11:52 PM 30.9 °F 23.5 °F 30.9 °F 100% 29.92 in 10.0 mi WNW 8.1 mph - N/A   Overcast